TimeEDT,TemperatureF,Dew PointF,Humidity,Sea Level PressureIn,VisibilityMPH,Wind Direction,Wind SpeedMPH,Gust SpeedMPH,PrecipitationIn,Events,Conditions,WindDirDegrees,DateUTC
12:54 AM,64.9,63.0,93,30.08,6.0,Calm,Calm,-,N/A,,Clear,0,2013-10-06 04:54:00
1:54 AM,64.9,63.0,93,30.08,7.0,Calm,Calm,-,N/A,,Clear,0,2013-10-06 05:54:00
2:54 AM,64.0,62.1,93,30.06,6.0,SE,3.5,-,N/A,,Clear,140,2013-10-06 06:54:00
3:54 AM,64.0,62.1,93,30.05,8.0,ESE,3.5,-,N/A,,Clear,120,2013-10-06 07:54:00
4:11 AM,64.9,62.1,90,30.06,8.0,ESE,3.5,-,N/A,,Scattered Clouds,110,2013-10-06 08:11:00
4:19 AM,64.0,62.1,93,30.06,7.0,East,3.5,-,N/A,,Mostly Cloudy,100,2013-10-06 08:19:00
4:43 AM,64.0,62.1,93,30.06,1.5,Calm,Calm,-,N/A,,Overcast,0,2013-10-06 08:43:00
4:54 AM,64.0,62.1,93,30.05,2.0,Calm,Calm,-,N/A,,Mostly Cloudy,0,2013-10-06 08:54:00
5:04 AM,63.0,61.0,93,30.06,4.0,ESE,3.5,-,N/A,,Scattered Clouds,120,2013-10-06 09:04:00
5:15 AM,63.0,60.1,90,30.06,8.0,SE,4.6,-,N/A,,Mostly Cloudy,130,2013-10-06 09:15:00
5:21 AM,64.0,61.0,90,30.06,1.5,SE,3.5,-,N/A,,Mostly Cloudy,130,2013-10-06 09:21:00
5:32 AM,64.0,62.1,93,30.06,3.0,Calm,Calm,-,N/A,,Mostly Cloudy,0,2013-10-06 09:32:00
5:42 AM,64.0,62.1,93,30.06,5.0,Calm,Calm,-,N/A,,Scattered Clouds,0,2013-10-06 09:42:00
5:54 AM,63.0,61.0,93,30.06,5.0,ESE,3.5,-,N/A,,Partly Cloudy,120,2013-10-06 09:54:00
6:10 AM,64.0,61.0,90,30.07,8.0,Calm,Calm,-,N/A,,Mostly Cloudy,0,2013-10-06 10:10:00
6:54 AM,63.0,60.1,90,30.06,3.0,ESE,3.5,-,N/A,,Partly Cloudy,110,2013-10-06 10:54:00
7:54 AM,64.9,61.0,87,30.07,3.0,East,3.5,-,N/A,,Partly Cloudy,100,2013-10-06 11:54:00
8:54 AM,73.0,69.1,87,30.08,6.0,ESE,4.6,-,N/A,,Partly Cloudy,110,2013-10-06 12:54:00
9:54 AM,79.0,69.1,72,30.09,10.0,SE,9.2,-,N/A,,Partly Cloudy,140,2013-10-06 13:54:00
10:54 AM,81.0,66.9,62,30.09,10.0,SE,9.2,-,N/A,,Scattered Clouds,140,2013-10-06 14:54:00
11:54 AM,81.0,66.9,62,30.07,10.0,South,10.4,-,N/A,,Mostly Cloudy,170,2013-10-06 15:54:00
12:54 PM,81.0,66.9,62,30.06,10.0,SE,11.5,-,N/A,,Mostly Cloudy,140,2013-10-06 16:54:00
1:54 PM,81.0,66.9,62,30.04,10.0,SSE,10.4,-,N/A,,Mostly Cloudy,160,2013-10-06 17:54:00
2:54 PM,80.1,66.9,64,30.03,10.0,SSE,10.4,-,N/A,,Mostly Cloudy,150,2013-10-06 18:54:00
3:54 PM,80.1,66.9,64,30.02,10.0,SSE,10.4,-,N/A,,Mostly Cloudy,150,2013-10-06 19:54:00
4:54 PM,79.0,68.0,69,30.01,10.0,SE,8.1,-,N/A,,Overcast,140,2013-10-06 20:54:00
5:54 PM,77.0,68.0,74,30.01,10.0,SE,8.1,-,N/A,,Overcast,140,2013-10-06 21:54:00
6:54 PM,75.0,68.0,79,30.01,10.0,SE,6.9,-,N/A,,Mostly Cloudy,140,2013-10-06 22:54:00
7:54 PM,73.9,68.0,82,30.01,10.0,ESE,5.8,-,N/A,,Mostly Cloudy,120,2013-10-06 23:54:00
8:54 PM,75.0,69.1,82,30.02,10.0,SE,5.8,-,N/A,,Mostly Cloudy,140,2013-10-07 00:54:00
9:51 PM,73.4,69.8,88,30.03,2.5,SSW,4.6,-,0.05,Rain,Rain,200,2013-10-07 01:51:00
9:54 PM,73.9,70.0,87,30.02,4.0,SSW,4.6,-,0.05,Rain,Light Rain,200,2013-10-07 01:54:00
10:54 PM,73.0,70.0,90,30.01,10.0,Calm,Calm,-,0.00,,Scattered Clouds,0,2013-10-07 02:54:00
11:54 PM,73.0,70.0,90,29.99,10.0,SE,5.8,-,N/A,,Clear,140,2013-10-07 03:54:00